Weather History for Atlanta, GA

Change the Weather History Date:

Monday, December 2, 2013

  Actual Average Record
Temperature  
Mean Temperature 50 °F 48 °F  
Max Temperature 54 °F 58 °F 74 °F (1970)
Min Temperature 45 °F 39 °F 21 °F (1944)
Degree Days  
Heating Degree Days 15 17  
Month to date heating degree days 30 33  
Since 1 July heating degree days 557 501  
Cooling Degree Days 0 0  
Month to date cooling degree days 0 0  
Year to date cooling degree days 1755 1882  
Moisture  
Dew Point 46 °F    
Average Humidity 83    
Maximum Humidity 100    
Minimum Humidity 66    
Precipitation  
Precipitation 0.17 in 0.14 in 4.60 in (1905)
Month to date precipitation 0.17 0.28  
Year to date precipitation 58.39 46.09  
Snow  
Snow 0.00 in 0.00 in 0.00 in (2001)
Month to date snowfall 0.0 0.0  
Since 1 July snowfall 0.4 0.0  
Snow Depth 0.00 in    
Sea Level Pressure  
Sea Level Pressure 29.92 in    
Wind  
Wind Speed 3 mph (SW)    
Max Wind Speed 8 mph    
Max Gust Speed 12 mph    
Visibility 5 miles    
Events Rain    
T = Trace of Precipitation, MM = Missing Value Source: NWS Daily Summary

Daily Weather History Graph

Daily Weather History Graph

Search for Another Location

Airport:

Trip Planner

Search our weather history database for the weather conditions in past years. The results will help you decide how hot, cold, wet, or windy it might be!

Date:

Astronomy

Dec. 02, 2013 Rise Set
Actual Time 7:25 AM EST 5:29 PM EST
Civil Twilight 6:57 AM EST 5:56 PM EST
Nautical Twilight 6:27 AM EST 6:27 PM EST
Astronomical Twilight 5:57 AM EST 6:57 PM EST
Moon 6:51 AM EST (12/2) 5:30 PM EST (12/2)
Length of Visible Light 10h 58m
Length of Day
10h 04m
Waning Crescent, 0% of the Moon is Illuminated
Dec 2
Waning Crescent
Dec 2
New
Dec 9
First Quarter
Dec 17
Full
Dec 25
Last Quarter

Hourly Weather History & Observations

Time (EST) Temp. Windchill Dew Point Humidity Pressure Visibility Wind Dir Wind Speed Gust Speed Precip Events Conditions
12:52 AM 48.0 °F - 39.0 °F 71% 30.01 in 10.0 mi Calm Calm - N/A   Overcast
1:52 AM 48.0 °F - 39.0 °F 71% 29.99 in 10.0 mi Calm Calm - N/A   Overcast
2:52 AM 46.9 °F - 39.0 °F 74% 29.99 in 10.0 mi Calm Calm - N/A   Overcast
3:52 AM 46.9 °F - 39.9 °F 77% 29.98 in 10.0 mi Calm Calm - N/A   Overcast
4:52 AM 48.0 °F - 39.9 °F 74% 29.95 in 10.0 mi Calm Calm - N/A   Overcast
5:52 AM 46.9 °F - 39.9 °F 77% 29.96 in 10.0 mi NW 5.8 mph - 0.00 in Rain Light Rain
6:52 AM 46.0 °F 43.9 °F 41.0 °F 83% 29.96 in 7.0 mi NW 4.6 mph - 0.00 in   Light Drizzle
7:52 AM 45.0 °F 41.8 °F 42.1 °F 90% 29.97 in 4.0 mi NW 5.8 mph - 0.00 in   Light Drizzle
8:05 AM 44.6 °F 43.1 °F 42.8 °F 93% 29.96 in 1.5 mi NNW 3.5 mph - 0.01 in Rain Rain
8:08 AM 44.6 °F 42.2 °F 42.8 °F 93% 29.96 in 2.5 mi NW 4.6 mph - 0.02 in Rain Rain
8:12 AM 44.6 °F - 42.8 °F 93% 29.96 in 3.0 mi Calm Calm - 0.03 in Rain Light Rain
8:25 AM 44.6 °F - 42.8 °F 93% 29.95 in 3.0 mi Calm Calm - 0.04 in Rain Light Rain
8:52 AM 46.0 °F 43.1 °F 44.1 °F 93% 29.95 in 2.5 mi SSW 5.8 mph - 0.05 in Rain Light Rain
8:54 AM 46.4 °F 43.5 °F 44.6 °F 93% 29.94 in 3.0 mi SW 5.8 mph - 0.00 in Rain Light Rain
9:32 AM 46.4 °F 44.3 °F 44.6 °F 93% 29.94 in 2.0 mi WSW 4.6 mph - 0.00 in   Light Drizzle
9:50 AM 46.4 °F - 44.6 °F 93% 29.95 in 2.5 mi Calm Calm - 0.00 in   Light Drizzle
9:52 AM 46.9 °F - 45.0 °F 93% 29.96 in 2.5 mi SW 3.5 mph - 0.00 in   Light Drizzle
10:52 AM 48.0 °F - 46.0 °F 93% 29.94 in 2.0 mi SSW 3.5 mph - 0.01 in   Light Drizzle
10:53 AM 48.2 °F - 46.4 °F 93% 29.93 in 2.5 mi SW 3.5 mph - 0.00 in   Light Drizzle
11:20 AM 48.2 °F - 46.4 °F 93% 29.93 in 5.0 mi SSW 4.6 mph - 0.00 in   Overcast
11:52 AM 48.9 °F - 46.9 °F 93% 29.91 in 5.0 mi South 3.5 mph - 0.00 in   Overcast
12:29 PM 50.0 °F - 48.2 °F 94% 29.90 in 2.5 mi SW 3.5 mph - 0.00 in Rain Light Rain
12:52 PM 50.0 °F - 48.0 °F 93% 29.90 in 2.5 mi SW 4.6 mph - 0.01 in   Overcast
1:50 PM 51.8 °F - 48.2 °F 88% 29.86 in 3.0 mi SW 5.8 mph - 0.01 in   Overcast
1:52 PM 51.1 °F - 48.9 °F 92% 29.87 in 3.0 mi SSW 5.8 mph - 0.01 in   Overcast
2:52 PM 53.1 °F - 51.1 °F 93% 29.84 in 3.0 mi SW 5.8 mph - 0.00 in   Overcast
3:52 PM 54.0 °F - 51.1 °F 90% 29.84 in 3.0 mi SW 4.6 mph - N/A   Overcast
4:52 PM 54.0 °F - 51.1 °F 90% 29.84 in 3.0 mi Calm Calm - N/A   Overcast
5:08 PM 53.6 °F - 51.8 °F 94% 29.83 in 6.0 mi South 3.5 mph - N/A   Overcast
5:52 PM 53.1 °F - 51.1 °F 93% 29.85 in 6.0 mi South 3.5 mph - N/A   Overcast
6:52 PM 53.1 °F - 51.1 °F 93% 29.86 in 6.0 mi South 3.5 mph - 0.00 in Rain Light Rain
7:52 PM 52.0 °F - 51.1 °F 97% 29.86 in 4.0 mi South 3.5 mph - 0.03 in Rain Light Rain
8:52 PM 52.0 °F - 51.1 °F 97% 29.87 in 6.0 mi Calm Calm - 0.01 in Rain Light Rain
9:52 PM 52.0 °F - 51.1 °F 97% 29.87 in 4.0 mi South 3.5 mph - 0.03 in Rain Light Rain
10:52 PM 52.0 °F - 51.1 °F 97% 29.87 in 6.0 mi SSE 4.6 mph - 0.02 in   Mostly Cloudy
11:52 PM 51.1 °F - 50.0 °F 96% 29.87 in 6.0 mi South 5.8 mph - N/A   Mostly Cloudy